Location: Aetna Mine
(37.6183°N, 107.6045°W)
Time: 23:36:30
(UTC+00:00)

Meteor 1-31 Rocket - Pass Details

Date: 18 September 2020
Orbit: 521 x 546 km, 97.6° (Epoch: 27 October)

Event Time Altitude Azimuth Distance (km) Brightness Sun altitude
Rises 12:09:23 0° 7° (N) 2,663 6.6 -9.9°
Reaches altitude 10° 12:11:31 10° 4° (N) 1,772 5.6 -9.5°
Maximum altitude 12:15:16 59° 285° (WNW) 613 2.8 -8.7°
Drops below altitude 10° 12:19:02 10° 205° (SSW) 1,771 5.1 -8.0°
Sets 12:21:09 0° 202° (SSW) 2,661 6.0 -7.6°
